^^
Saratoga-Weather Station Historical Data
Daily Summary for December 24, 2020 Units:  English    Metric   Both
Daily Weekly Monthly Yearly Custom
  High: Low: Average:
Temperature: 48.4 °F 37.6 °F 43 °F
Dew Point: 43.9 °F 35.2 °F 40.1 °F
Humidity: 95% 79% 90%
Wind Speed: 12.1mph 0mph 3.7mph
Wind Gust: 17mph - -
Wind- - West
Pressure: 30 in 29.7 in -
Precipitation: 0.44 in    
Historical Graphs
 
 
Tabular Data for December 24, 2020
Time Temperature Dew Point Pressure Wind Wind Speed Wind Gust Humidity Rainfall Rate (Hourly) solar
00:03 48.4 °F 43.7 °F 29.8 in West 2 mph 12 mph 84% 0 in 0 W/m2
00:08 48.2 °F 43.5 °F 29.8 in WNW 0.9 mph 4 mph 84% 0 in 0 W/m2
00:13 48 °F 43.3 °F 29.8 in WNW 4 mph 4 mph 84% 0 in 0 W/m2
00:18 48 °F 43.3 °F 29.8 in WNW 0.9 mph 6 mph 84% 0 in 0 W/m2
00:23 48 °F 43.3 °F 29.8 in NW 4.9 mph 5 mph 84% 0 in 0 W/m2
00:28 48 °F 43.3 °F 29.8 in WNW 2 mph 5 mph 84% 0 in 0 W/m2
00:33 48 °F 43.3 °F 29.8 in NW 2 mph 4 mph 84% 0 in 0 W/m2
00:38 47.8 °F 43.2 °F 29.8 in NW 4.9 mph 5 mph 84% 0 in 0 W/m2
00:43 48 °F 43.2 °F 29.8 in WNW 4.9 mph 8 mph 83% 0 in 0 W/m2
00:48 48 °F 43.2 °F 29.8 in ENE 2 mph 3 mph 83% 0 in 0 W/m2
00:53 47.8 °F 42.6 °F 29.8 in WNW 2 mph 5 mph 82% 0 in 0 W/m2
00:58 47.8 °F 42.6 °F 29.8 in West 2 mph 6 mph 82% 0 in 0 W/m2
01:16 47.7 °F 41.7 °F 29.8 in NW 6.9 mph 9 mph 80% 0 in 0 W/m2
01:21 47.5 °F 41.4 °F 29.8 in WSW 10 mph 10 mph 79% 0 in 0 W/m2
01:26 47.5 °F 41.5 °F 29.8 in WSW 2.9 mph 7 mph 80% 0 in 0 W/m2
01:31 47.5 °F 41.5 °F 29.8 in WNW 0.9 mph 4 mph 80% 0 in 0 W/m2
01:36 47.5 °F 41.5 °F 29.8 in South 2 mph 7 mph 80% 0 in 0 W/m2
01:41 47.3 °F 41.4 °F 29.8 in WNW 0.9 mph 6 mph 80% 0 in 0 W/m2
01:46 47.3 °F 41.4 °F 29.8 in NW 2 mph 3 mph 80% 0 in 0 W/m2
01:51 47.3 °F 41.7 °F 29.8 in WNW 0.9 mph 3 mph 81% 0 in 0 W/m2
01:56 47.1 °F 41.9 °F 29.8 in SSE 0.9 mph 4 mph 82% 0 in 0 W/m2
02:01 46.9 °F 41.4 °F 29.8 in NW 2 mph 6 mph 81% 0 in 0 W/m2
02:06 47.1 °F 41.5 °F 29.8 in WNW 0.9 mph 2 mph 81% 0 in 0 W/m2
02:11 47.1 °F 41.5 °F 29.8 in SW 2.9 mph 5 mph 81% 0 in 0 W/m2
02:16 46.9 °F 41.4 °F 29.8 in SW 2 mph 5 mph 81% 0 in 0 W/m2
02:34 46.9 °F 41.2 °F 29.8 in NNW 0.9 mph 3 mph 80% 0 in 0 W/m2
02:39 46.8 °F 41.2 °F 29.8 in WNW 2 mph 4 mph 81% 0 in 0 W/m2
02:44 46.8 °F 41.2 °F 29.8 in NNE 0.9 mph 4 mph 81% 0 in 0 W/m2
02:49 46.9 °F 41.4 °F 29.8 in NNW 6 mph 6 mph 81% 0 in 0 W/m2
02:54 46.9 °F 41.2 °F 29.8 in NNW 0.9 mph 4 mph 80% 0 in 0 W/m2
02:59 47.1 °F 41.4 °F 29.8 in NNW 0.9 mph 8 mph 80% 0 in 0 W/m2
03:04 47.1 °F 41.4 °F 29.8 in NE 2.9 mph 4 mph 80% 0 in 0 W/m2
03:09 46.9 °F 41.2 °F 29.8 in NW 2 mph 8 mph 80% 0 in 0 W/m2
03:14 47.1 °F 41.4 °F 29.8 in NE 2 mph 3 mph 80% 0 in 0 W/m2
03:19 46.9 °F 41.2 °F 29.8 in NNE 0.9 mph 5 mph 80% 0 in 0 W/m2
03:24 46.9 °F 41.4 °F 29.8 in NW 2.9 mph 4 mph 81% 0 in 0 W/m2
03:29 46.9 °F 41.4 °F 29.8 in Calm   4 mph 81% 0 in 0 W/m2
03:34 46.9 °F 41.4 °F 29.8 in ENE 2.9 mph 4 mph 81% 0 in 0 W/m2
03:39 46.8 °F 41.2 °F 29.8 in East 2.9 mph 5 mph 81% 0 in 0 W/m2
03:44 46.8 °F 41.2 °F 29.8 in NE 4 mph 7 mph 81% 0 in 0 W/m2
03:49 46.9 °F 41.4 °F 29.8 in North 0.9 mph 3 mph 81% 0 in 0 W/m2
03:54 46.9 °F 41.4 °F 29.8 in NNW 2 mph 5 mph 81% 0 in 0 W/m2
03:59 47.1 °F 41.5 °F 29.8 in North 4 mph 4 mph 81% 0 in 0 W/m2
04:04 47.1 °F 41.9 °F 29.8 in ESE 0.9 mph 2 mph 82% 0 in 0 W/m2
04:09 47.1 °F 41.5 °F 29.8 in Calm   3 mph 81% 0 in 0 W/m2
04:14 47.1 °F 41.5 °F 29.8 in SSW 2.9 mph 7 mph 81% 0 in 0 W/m2
04:19 46.9 °F 41.7 °F 29.8 in NNW 0.9 mph 5 mph 82% 0 in 0 W/m2
04:24 46.8 °F 41.9 °F 29.8 in NW 4.9 mph 8 mph 83% 0.01 in 0 W/m2
04:29 46.6 °F 42.1 °F 29.8 in WNW 2.9 mph 5 mph 84% 0.02 in 0 W/m2
04:34 46.4 °F 41.9 °F 29.8 in NW 4 mph 6 mph 84% 0.02 in 0 W/m2
04:39 46 °F 42.1 °F 29.8 in NW 4 mph 8 mph 86% 0.03 in 0 W/m2
04:44 46 °F 42.1 °F 29.8 in NE 4 mph 5 mph 86% 0.03 in 0 W/m2
04:49 45.9 °F 42.3 °F 29.8 in NE 4 mph 4 mph 87% 0.04 in 0 W/m2
04:54 45.7 °F 42.3 °F 29.8 in ENE 0.9 mph 3 mph 88% 0.04 in 0 W/m2
04:59 45.7 °F 42.3 °F 29.7 in NW 2.9 mph 3 mph 88% 0.04 in 0 W/m2
05:04 45.5 °F 42.4 °F 29.7 in WNW 0.9 mph 10 mph 89% 0.05 in 0 W/m2
05:21 45.3 °F 42.6 °F 29.7 in ENE 2 mph 4 mph 90% 0.05 in 0 W/m2
05:26 45.3 °F 42.6 °F 29.7 in SSW 0.9 mph 6 mph 90% 0.05 in 0 W/m2
05:32 45.1 °F 42.4 °F 29.7 in NE 0.9 mph 3 mph 90% 0.05 in 0 W/m2
05:37 45.1 °F 42.6 °F 29.7 in WNW 2.9 mph 6 mph 91% 0.05 in 0 W/m2
05:42 45.1 °F 42.6 °F 29.7 in NE 2 mph 8 mph 91% 0.06 in 0 W/m2
05:47 45 °F 42.4 °F 29.7 in WNW 2.9 mph 5 mph 91% 0.06 in 0 W/m2
05:52 45 °F 42.4 °F 29.7 in WNW 2 mph 9 mph 91% 0.06 in 0 W/m2
05:57 45 °F 42.4 °F 29.7 in North 4 mph 8 mph 91% 0.07 in 0 W/m2
06:02 45 °F 42.8 °F 29.7 in NNW 0.9 mph 9 mph 92% 0.07 in 0 W/m2
06:07 44.8 °F 42.6 °F 29.7 in Calm   10 mph 92% 0.08 in 0 W/m2
06:12 44.8 °F 42.6 °F 29.7 in WNW 6.9 mph 14 mph 92% 0.09 in 0 W/m2
06:17 44.8 °F 42.6 °F 29.7 in WNW 2.9 mph 4 mph 92% 0.1 in 0 W/m2
06:22 44.6 °F 42.4 °F 29.7 in Calm   14 mph 92% 0.11 in 0 W/m2
06:27 44.6 °F 42.4 °F 29.7 in West 6 mph 9 mph 92% 0.11 in 0 W/m2
06:32 44.6 °F 42.4 °F 29.7 in NE 12.1 mph 12 mph 92% 0.11 in 0 W/m2
06:37 44.6 °F 42.4 °F 29.7 in West 2 mph 4 mph 92% 0.12 in 0 W/m2
06:42 44.4 °F 42.3 °F 29.7 in NE 0.9 mph 4 mph 92% 0.13 in 0 W/m2
06:47 44.4 °F 42.3 °F 29.7 in NNW 2 mph 5 mph 92% 0.14 in 0 W/m2
06:52 44.4 °F 42.3 °F 29.7 in WNW 8.9 mph 10 mph 92% 0.16 in 0 W/m2
06:57 44.4 °F 42.3 °F 29.7 in West 2 mph 9 mph 92% 0.16 in 0 W/m2
07:02 44.4 °F 42.3 °F 29.7 in NNW 4.9 mph 12 mph 92% 0.16 in 0 W/m2
07:07 44.4 °F 42.3 °F 29.7 in WNW 4 mph 7 mph 92% 0.16 in 0 W/m2
07:12 44.4 °F 42.3 °F 29.7 in West 0.9 mph 12 mph 92% 0.16 in 0 W/m2
07:17 44.4 °F 42.4 °F 29.7 in Calm   3 mph 93% 0.16 in 0 W/m2
07:22 44.4 °F 42.4 °F 29.7 in West 6 mph 6 mph 93% 0.15 in 0 W/m2
07:27 44.4 °F 42.4 °F 29.7 in SE 2 mph 6 mph 93% 0.15 in 0 W/m2
07:32 44.2 °F 42.3 °F 29.7 in WNW 0.9 mph 8 mph 93% 0.14 in 0 W/m2
07:37 44.4 °F 42.4 °F 29.7 in NNW 2.9 mph 4 mph 93% 0.13 in 0 W/m2
07:42 44.4 °F 42.4 °F 29.7 in ENE 2 mph 7 mph 93% 0.11 in 0 W/m2
07:47 44.4 °F 42.8 °F 29.7 in SW 2.9 mph 7 mph 94% 0.09 in 0 W/m2
07:52 44.4 °F 42.8 °F 29.7 in NW 2 mph 7 mph 94% 0.08 in 0 W/m2
07:57 44.4 °F 42.8 °F 29.7 in WNW 4 mph 6 mph 94% 0.08 in 0 W/m2
08:17 44.6 °F 43 °F 29.7 in West 4 mph 6 mph 94% 0.05 in 0 W/m2
08:22 44.6 °F 43.3 °F 29.7 in NW 6.9 mph 8 mph 95% 0.05 in 0 W/m2
08:27 44.8 °F 43.5 °F 29.7 in NW 2.9 mph 9 mph 95% 0.05 in 0 W/m2
08:32 44.8 °F 43.5 °F 29.7 in WNW 6 mph 6 mph 95% 0.04 in 0 W/m2
08:37 44.8 °F 43.5 °F 29.7 in West 6 mph 7 mph 95% 0.04 in 0 W/m2
08:42 45 °F 43.3 °F 29.7 in WNW 0.9 mph 6 mph 94% 0.03 in 5 W/m2
08:47 45 °F 43.3 °F 29.8 in West 4 mph 8 mph 94% 0.03 in 5 W/m2
08:52 45 °F 43.3 °F 29.8 in WNW 8.1 mph 15 mph 94% 0.03 in 9 W/m2
09:09 45.1 °F 43.5 °F 29.8 in West 4 mph 9 mph 94% 0.02 in 19 W/m2
09:14 45.1 °F 43.5 °F 29.8 in WNW 4 mph 4 mph 94% 0.02 in 23 W/m2
09:19 45.1 °F 43.5 °F 29.8 in WNW 2 mph 4 mph 94% 0.02 in 19 W/m2
09:24 45.1 °F 43.9 °F 29.8 in WNW 4.9 mph 5 mph 95% 0.01 in 33 W/m2
09:29 45.1 °F 43.5 °F 29.8 in West 4 mph 9 mph 94% 0.02 in 25 W/m2
09:34 45.1 °F 43.5 °F 29.8 in WNW 4.9 mph 10 mph 94% 0.02 in 25 W/m2
09:39 45.3 °F 43.7 °F 29.8 in West 6.9 mph 10 mph 94% 0.02 in 42 W/m2
10:00 45.3 °F 43.7 °F 29.8 in WNW 4.9 mph 10 mph 94% 0.02 in 70 W/m2
10:05 45.5 °F 43.5 °F 29.8 in West 6 mph 8 mph 93% 0.02 in 97 W/m2
10:10 45.5 °F 43.5 °F 29.8 in West 6.9 mph 9 mph 93% 0.01 in 60 W/m2
10:15 45.5 °F 43.5 °F 29.8 in WNW 4 mph 10 mph 93% 0.01 in 63 W/m2
10:20 45.3 °F 43.2 °F 29.8 in West 6.9 mph 11 mph 92% 0.01 in 49 W/m2
10:25 45.3 °F 43.2 °F 29.8 in SSW 6 mph 10 mph 92% 0 in 42 W/m2
10:30 45.3 °F 43.2 °F 29.8 in West 6 mph 9 mph 92% 0 in 116 W/m2
10:35 45.3 °F 43.2 °F 29.8 in WNW 2.9 mph 7 mph 92% 0 in 111 W/m2
10:40 45.5 °F 43.5 °F 29.8 in West 2 mph 7 mph 93% 0 in 109 W/m2
10:45 45.5 °F 43.3 °F 29.8 in West 6 mph 8 mph 92% 0 in 120 W/m2
10:50 45.7 °F 43.5 °F 29.8 in WNW 4 mph 7 mph 92% 0 in 176 W/m2
10:55 45.7 °F 43.5 °F 29.8 in WNW 2.9 mph 8 mph 92% 0 in 47 W/m2
11:00 45.5 °F 43.3 °F 29.8 in West 8.1 mph 10 mph 92% 0 in 67 W/m2
11:05 45.1 °F 43 °F 29.8 in WNW 6 mph 8 mph 92% 0 in 90 W/m2
11:10 45 °F 42.8 °F 29.8 in WNW 2.9 mph 8 mph 92% 0 in 104 W/m2
11:15 45 °F 43 °F 29.8 in West 11 mph 11 mph 93% 0 in 84 W/m2
11:34 45.1 °F 43.2 °F 29.8 in NW 8.9 mph 9 mph 93% 0 in 97 W/m2
11:39 45.1 °F 43 °F 29.8 in NW 2 mph 9 mph 92% 0 in 118 W/m2
11:44 45.1 °F 42.6 °F 29.8 in WNW 2 mph 12 mph 91% 0 in 81 W/m2
11:49 45.1 °F 42.6 °F 29.8 in WNW 2 mph 6 mph 91% 0 in 60 W/m2
11:54 45.1 °F 42.6 °F 29.8 in WNW 0.9 mph 5 mph 91% 0 in 60 W/m2
11:59 45.1 °F 42.6 °F 29.8 in WNW 2.9 mph 8 mph 91% 0 in 76 W/m2
12:04 45.3 °F 42.8 °F 29.8 in WNW 2.9 mph 4 mph 91% 0 in 100 W/m2
12:09 45.5 °F 43.3 °F 29.8 in WNW 0.9 mph 2 mph 92% 0 in 116 W/m2
12:14 45.7 °F 43.5 °F 29.8 in NW 2 mph 8 mph 92% 0 in 120 W/m2
12:19 46 °F 43.5 °F 29.8 in West 0.9 mph 4 mph 91% 0 in 107 W/m2
12:24 46.2 °F 43.7 °F 29.8 in West 0.9 mph 7 mph 91% 0 in 114 W/m2
12:29 46.2 °F 43.7 °F 29.8 in SW 2.9 mph 6 mph 91% 0 in 120 W/m2
12:34 46.2 °F 43.5 °F 29.8 in SW 4.9 mph 8 mph 90% 0 in 67 W/m2
12:39 46.4 °F 43.7 °F 29.8 in West 2.9 mph 6 mph 90% 0 in 56 W/m2
12:44 46.4 °F 43.7 °F 29.8 in West 2 mph 7 mph 90% 0 in 127 W/m2
12:49 46.4 °F 43.7 °F 29.8 in NW 2.9 mph 4 mph 90% 0 in 132 W/m2
12:54 46.6 °F 43.9 °F 29.8 in WNW 2.9 mph 7 mph 90% 0 in 113 W/m2
12:59 46.6 °F 43.9 °F 29.8 in West 2 mph 3 mph 90% 0 in 84 W/m2
13:04 46.4 °F 43.7 °F 29.8 in NW 2 mph 4 mph 90% 0 in 79 W/m2
13:09 46.4 °F 43.9 °F 29.8 in WNW 2 mph 4 mph 91% 0 in 63 W/m2
13:14 46.2 °F 43.7 °F 29.8 in West 2 mph 7 mph 91% 0 in 90 W/m2
13:19 46 °F 43.5 °F 29.8 in NW 2 mph 5 mph 91% 0 in 60 W/m2
13:24 46 °F 43.9 °F 29.8 in WNW 2.9 mph 7 mph 92% 0 in 84 W/m2
13:29 45.9 °F 43.7 °F 29.8 in West 2.9 mph 8 mph 92% 0 in 90 W/m2
13:34 45.7 °F 43.5 °F 29.8 in WNW 4.9 mph 8 mph 92% 0 in 83 W/m2
13:39 45.7 °F 43.7 °F 29.8 in WNW 2 mph 6 mph 93% 0 in 93 W/m2
13:44 45.7 °F 43.7 °F 29.8 in WNW 6 mph 8 mph 93% 0 in 95 W/m2
13:49 45.7 °F 43.7 °F 29.8 in SW 2.9 mph 5 mph 93% 0 in 97 W/m2
13:54 45.7 °F 43.7 °F 29.8 in WNW 2.9 mph 7 mph 93% 0 in 90 W/m2
13:59 45.7 °F 43.7 °F 29.8 in WNW 2.9 mph 7 mph 93% 0 in 67 W/m2
14:04 45.7 °F 43.7 °F 29.8 in West 6 mph 6 mph 93% 0 in 53 W/m2
14:09 45.7 °F 43.7 °F 29.8 in WNW 4.9 mph 7 mph 93% 0 in 35 W/m2
14:14 45.3 °F 43.3 °F 29.8 in West 10.1 mph 12 mph 93% 0.01 in 76 W/m2
14:19 45 °F 43 °F 29.8 in West 8.1 mph 10 mph 93% 0.01 in 83 W/m2
14:24 44.8 °F 42.8 °F 29.8 in West 4 mph 13 mph 93% 0.01 in 44 W/m2
14:29 44.8 °F 42.8 °F 29.8 in West 4 mph 7 mph 93% 0.01 in 37 W/m2
14:34 44.4 °F 42.4 °F 29.8 in West 4 mph 13 mph 93% 0.01 in 37 W/m2
14:39 44.4 °F 42.4 °F 29.8 in West 4 mph 9 mph 93% 0.01 in 32 W/m2
14:44 44.2 °F 42.1 °F 29.8 in West 6.9 mph 11 mph 92% 0.01 in 32 W/m2
14:49 44.1 °F 41.9 °F 29.8 in NW 4 mph 11 mph 92% 0.01 in 14 W/m2
14:54 44.1 °F 41.9 °F 29.8 in WNW 6 mph 7 mph 92% 0.01 in 14 W/m2
14:59 43.9 °F 41.7 °F 29.8 in WSW 6.9 mph 9 mph 92% 0.01 in 16 W/m2
15:04 43.5 °F 41.4 °F 29.8 in WSW 2.9 mph 7 mph 92% 0.01 in 23 W/m2
15:09 43.3 °F 41.5 °F 29.8 in West 2.9 mph 9 mph 93% 0.01 in 30 W/m2
15:14 43.3 °F 41.5 °F 29.8 in SW 2.9 mph 8 mph 93% 0 in 19 W/m2
15:20 43.3 °F 41.5 °F 29.8 in West 2 mph 6 mph 93% 0 in 23 W/m2
15:25 43.3 °F 41.5 °F 29.8 in WNW 6 mph 7 mph 93% 0 in 21 W/m2
15:30 43.3 °F 41.5 °F 29.8 in NW 4 mph 8 mph 93% 0 in 5 W/m2
15:35 42.8 °F 40.3 °F 29.8 in WNW 8.9 mph 15 mph 91% 0 in 7 W/m2
15:40 42.3 °F 39.7 °F 29.8 in West 6 mph 13 mph 91% 0 in 7 W/m2
15:45 42.1 °F 39.4 °F 29.8 in West 8.1 mph 11 mph 90% 0 in 5 W/m2
15:50 41.7 °F 39 °F 29.8 in WNW 6 mph 11 mph 90% 0 in 7 W/m2
15:55 41.7 °F 38.7 °F 29.8 in West 6.9 mph 10 mph 89% 0 in 5 W/m2
16:00 41.5 °F 38.5 °F 29.8 in East 2 mph 8 mph 89% 0 in 5 W/m2
16:05 41.4 °F 38.3 °F 29.8 in WSW 6.9 mph 8 mph 89% 0 in 0 W/m2
16:10 41.2 °F 37.9 °F 29.8 in East 6.9 mph 13 mph 88% 0 in 0 W/m2
16:15 40.8 °F 37.8 °F 29.9 in West 6 mph 11 mph 89% 0 in 0 W/m2
16:20 40.6 °F 37.6 °F 29.9 in West 8.1 mph 13 mph 89% 0 in 0 W/m2
16:25 40.1 °F 36.9 °F 29.9 in West 12.1 mph 17 mph 88% 0 in 0 W/m2
16:30 39.7 °F 36.7 °F 29.9 in WSW 4.9 mph 8 mph 89% 0 in 0 W/m2
16:35 39.6 °F 36.5 °F 29.9 in North 2.9 mph 12 mph 89% 0.01 in 0 W/m2
16:40 39.4 °F 36.7 °F 29.9 in West 6.9 mph 15 mph 90% 0.01 in 0 W/m2
16:45 39 °F 36.3 °F 29.9 in West 6 mph 10 mph 90% 0.01 in 0 W/m2
16:50 38.8 °F 36.1 °F 29.9 in West 8.1 mph 15 mph 90% 0.02 in 0 W/m2
16:55 38.5 °F 36.1 °F 29.9 in West 12.1 mph 13 mph 91% 0.02 in 0 W/m2
17:00 37.9 °F 35.6 °F 29.9 in NNW 2.9 mph 12 mph 91% 0.02 in 0 W/m2
17:05 37.8 °F 35.4 °F 29.9 in WSW 6.9 mph 10 mph 91% 0.02 in 0 W/m2
17:10 37.6 °F 35.4 °F 29.9 in West 4 mph 11 mph 92% 0.03 in 0 W/m2
17:15 37.6 °F 35.4 °F 29.9 in West 8.1 mph 13 mph 92% 0.04 in 0 W/m2
17:20 37.6 °F 35.4 °F 29.9 in WNW 4.9 mph 11 mph 92% 0.04 in 0 W/m2
17:25 37.6 °F 35.4 °F 29.9 in WNW 6 mph 14 mph 92% 0.05 in 0 W/m2
17:30 37.8 °F 35.6 °F 29.9 in WNW 4.9 mph 8 mph 92% 0.05 in 0 W/m2
17:35 37.8 °F 35.6 °F 29.9 in WNW 4 mph 11 mph 92% 0.04 in 0 W/m2
17:40 37.8 °F 35.6 °F 29.9 in WNW 4.9 mph 11 mph 92% 0.05 in 0 W/m2
17:45 37.8 °F 35.6 °F 29.9 in NW 6.9 mph 9 mph 92% 0.05 in 0 W/m2
17:50 37.8 °F 35.6 °F 29.9 in NW 6.9 mph 11 mph 92% 0.04 in 0 W/m2
17:55 37.9 °F 35.8 °F 29.9 in WNW 2.9 mph 10 mph 92% 0.05 in 0 W/m2
18:00 37.9 °F 35.8 °F 29.9 in NW 4 mph 9 mph 92% 0.04 in 0 W/m2
18:05 37.9 °F 35.8 °F 29.9 in West 2.9 mph 7 mph 92% 0.04 in 0 W/m2
18:10 37.9 °F 35.8 °F 29.9 in WNW 8.9 mph 10 mph 92% 0.03 in 0 W/m2
18:15 37.9 °F 35.8 °F 29.9 in WNW 2.9 mph 8 mph 92% 0.02 in 0 W/m2
18:20 37.9 °F 35.8 °F 29.9 in SW 4.9 mph 8 mph 92% 0.02 in 0 W/m2
18:25 37.9 °F 35.8 °F 29.9 in West 2.9 mph 10 mph 92% 0.02 in 0 W/m2
18:30 37.9 °F 35.8 °F 29.9 in NW 4 mph 5 mph 92% 0.02 in 0 W/m2
18:35 38.1 °F 36 °F 29.9 in WNW 2.9 mph 10 mph 92% 0.02 in 0 W/m2
18:40 38.1 °F 36 °F 29.9 in WSW 4 mph 4 mph 92% 0.01 in 0 W/m2
18:45 38.3 °F 36.1 °F 29.9 in West 6.9 mph 8 mph 92% 0.01 in 0 W/m2
18:50 38.5 °F 36.3 °F 29.9 in West 8.1 mph 8 mph 92% 0.01 in 0 W/m2
18:55 38.5 °F 36.3 °F 29.9 in WNW 0.9 mph 7 mph 92% 0 in 0 W/m2
19:00 38.7 °F 36.5 °F 29.9 in West 2 mph 10 mph 92% 0 in 0 W/m2
19:05 38.7 °F 36.5 °F 29.9 in West 4 mph 7 mph 92% 0 in 0 W/m2
19:10 38.7 °F 36.5 °F 29.9 in WNW 2 mph 7 mph 92% 0 in 0 W/m2
19:15 38.7 °F 36.5 °F 29.9 in WNW 2 mph 7 mph 92% 0 in 0 W/m2
19:20 38.5 °F 36.3 °F 30 in WNW 2 mph 7 mph 92% 0 in 0 W/m2
19:25 38.5 °F 36.3 °F 30 in NNW 2.9 mph 7 mph 92% 0 in 0 W/m2
19:30 38.5 °F 36.3 °F 30 in West 2.9 mph 8 mph 92% 0 in 0 W/m2
19:35 38.5 °F 36.3 °F 30 in WNW 4 mph 6 mph 92% 0 in 0 W/m2
19:40 38.5 °F 36.3 °F 30 in WSW 2.9 mph 7 mph 92% 0 in 0 W/m2
19:45 38.5 °F 36.3 °F 30 in West 4 mph 4 mph 92% 0 in 0 W/m2
19:50 38.5 °F 36.3 °F 30 in NW 2.9 mph 7 mph 92% 0 in 0 W/m2
19:55 38.5 °F 36.3 °F 30 in WNW 2 mph 5 mph 92% 0 in 0 W/m2
20:00 38.5 °F 36.3 °F 30 in West 6 mph 6 mph 92% 0 in 0 W/m2
20:05 38.5 °F 36.3 °F 30 in West 2 mph 4 mph 92% 0 in 0 W/m2
20:10 38.5 °F 36.3 °F 30 in West 0.9 mph 2 mph 92% 0 in 0 W/m2
20:15 38.5 °F 36.3 °F 30 in WNW 2 mph 3 mph 92% 0 in 0 W/m2
20:20 38.5 °F 36.3 °F 30 in WNW 2 mph 4 mph 92% 0 in 0 W/m2
20:25 38.3 °F 36.1 °F 30 in West 0.9 mph 4 mph 92% 0 in 0 W/m2
20:30 38.3 °F 36.1 °F 30 in WNW 2 mph 6 mph 92% 0 in 0 W/m2
20:35 38.3 °F 36.1 °F 30 in WNW 4.9 mph 5 mph 92% 0 in 0 W/m2
20:40 38.1 °F 36 °F 30 in West 2 mph 6 mph 92% 0 in 0 W/m2
20:45 38.1 °F 36 °F 30 in SSW 6.9 mph 7 mph 92% 0 in 0 W/m2
20:50 38.1 °F 36 °F 30 in WSW 2.9 mph 5 mph 92% 0 in 0 W/m2
20:55 37.9 °F 35.8 °F 30 in West 2 mph 4 mph 92% 0 in 0 W/m2
21:00 37.9 °F 35.8 °F 30 in WNW 2.9 mph 7 mph 92% 0 in 0 W/m2
21:05 37.9 °F 35.8 °F 30 in WNW 0.9 mph 5 mph 92% 0 in 0 W/m2
21:10 37.9 °F 35.8 °F 30 in West 2 mph 6 mph 92% 0 in 0 W/m2
21:15 38.1 °F 36 °F 30 in West 4 mph 9 mph 92% 0 in 0 W/m2
21:20 38.1 °F 36 °F 30 in West 4 mph 8 mph 92% 0 in 0 W/m2
21:25 38.1 °F 36 °F 30 in WNW 2.9 mph 9 mph 92% 0 in 0 W/m2
21:30 37.9 °F 35.8 °F 30 in NW 2.9 mph 9 mph 92% 0 in 0 W/m2
21:35 38.1 °F 36 °F 30 in West 6.9 mph 9 mph 92% 0 in 0 W/m2
21:40 38.1 °F 36 °F 30 in West 2.9 mph 8 mph 92% 0 in 0 W/m2
21:45 37.9 °F 35.8 °F 30 in West 4 mph 9 mph 92% 0 in 0 W/m2
21:50 37.9 °F 35.8 °F 30 in WNW 6.9 mph 8 mph 92% 0 in 0 W/m2
21:55 37.9 °F 35.8 °F 30 in West 4 mph 7 mph 92% 0 in 0 W/m2
22:01 37.9 °F 35.8 °F 30 in WNW 4.9 mph 9 mph 92% 0 in 0 W/m2
22:06 37.9 °F 35.8 °F 30 in West 4 mph 7 mph 92% 0 in 0 W/m2
22:11 37.9 °F 35.8 °F 30 in West 6 mph 10 mph 92% 0 in 0 W/m2
22:16 38.1 °F 35.8 °F 30 in West 6 mph 9 mph 91% 0 in 0 W/m2
22:21 38.1 °F 35.8 °F 30 in WSW 2.9 mph 10 mph 91% 0 in 0 W/m2
22:26 38.1 °F 35.8 °F 30 in West 6.9 mph 9 mph 91% 0 in 0 W/m2
22:31 37.9 °F 35.6 °F 30 in West 4 mph 10 mph 91% 0 in 0 W/m2
22:36 37.9 °F 35.6 °F 30 in WSW 4.9 mph 10 mph 91% 0 in 0 W/m2
22:41 37.9 °F 35.6 °F 30 in North 4 mph 8 mph 91% 0 in 0 W/m2
22:46 37.9 °F 35.6 °F 30 in WSW 4 mph 7 mph 91% 0 in 0 W/m2
22:51 37.8 °F 35.4 °F 30 in WSW 4.9 mph 9 mph 91% 0 in 0 W/m2
22:56 37.8 °F 35.4 °F 30 in WNW 2 mph 7 mph 91% 0 in 0 W/m2
23:01 37.6 °F 35.2 °F 30 in West 4 mph 7 mph 91% 0 in 0 W/m2
23:06 37.6 °F 35.2 °F 30 in West 4 mph 6 mph 91% 0 in 0 W/m2
23:11 37.6 °F 35.2 °F 30 in WSW 4 mph 4 mph 91% 0 in 0 W/m2
23:16 37.6 °F 35.2 °F 30 in WNW 4 mph 7 mph 91% 0 in 0 W/m2
23:21 37.8 °F 35.4 °F 30 in WNW 2.9 mph 8 mph 91% 0 in 0 W/m2
23:26 37.9 °F 35.6 °F 30 in West 2 mph 6 mph 91% 0 in 0 W/m2
23:31 37.9 °F 35.6 °F 30 in West 2 mph 4 mph 91% 0 in 0 W/m2
23:36 37.8 °F 35.4 °F 30 in West 2.9 mph 4 mph 91% 0 in 0 W/m2
23:41 37.8 °F 35.4 °F 30 in WNW 2.9 mph 4 mph 91% 0 in 0 W/m2
23:46 37.6 °F 35.2 °F 30 in WNW 2 mph 3 mph 91% 0 in 0 W/m2
23:51 37.6 °F 35.2 °F 30 in West 2.9 mph 4 mph 91% 0 in 0 W/m2
23:56 37.6 °F 35.2 °F 30 in West 4 mph 6 mph 91% 0 in 0 W/m2
Juneau County Weather
Compliments of Weather Underground - 4 mb